QPF
0.00 0.00 0.00 0.00 0.00 0.00 0.00 0.00 0.00 0.00 0.00 0.00 0.00 0.00 0.00 0.00 0.00 0.00 0.00 0.00 0.00 0.00 0.00 0.00 0.00 0.00 0.00 0.00 0.00 0.00 0.00 0.00 0.00 0.00 0.00 0.00 0.00 0.00 0.00 0.00 0.00 0.00 0.00
0.00 0.00 0.00 0.00 0.00 0.00 0.00 0.00 0.00 0.00 0.00 0.00 0.00 0.00 0.00 0.00 0.00 0.00 0.00 0.00 0.00 0.00 0.00 0.00 0.00 0.00 0.00 0.00 0.00 0.00 0.00 0.00 0.00 0.00 0.00 0.00 0.00 0.00 0.00 0.00 0.00 0.00 0.00
0.00 0.00 0.00 0.00 0.00 0.00 0.00 0.00 0.00 0.00 0.00 0.00 0.00 0.00 0.00 0.00 0.00 0.00 0.00 0.00 0.00 0.00 0.00 0.00 0.00 0.00 0.00 0.00 0.00 0.00 0.00 0.00 0.00 0.00 0.00 0.00 0.00 0.00 0.00 0.00 0.00 0.00 0.00
0.00 0.00 0.00 0.00 0.00 0.00 0.00 0.00 0.00 0.00 0.00 0.00 0.00 0.00 0.00 0.00 0.00 0.00 0.00 0.00 0.00 0.00 0.00 0.00 0.00 0.00 0.00 0.00 0.00 0.00 0.00 0.00 0.00 0.00 0.00 0.00 0.00 0.00 0.00 0.00 0.00 0.00 0.00
0.00 0.00 0.00 0.00 0.00 0.00 0.00 0.00 0.00 0.00 0.00 0.00 0.00 0.00 0.00 0.00 0.00 0.00 0.00 0.00 0.00 0.00 0.00 0.00 0.00 0.00 0.00 0.00 0.00 0.00 0.00 0.00 0.00 0.00 0.00 0.00 0.00 0.00 0.00 0.00 0.00 0.00 0.00
0.00 0.00 0.00 0.00 0.00 0.00 0.00 0.00 0.00 0.00 0.00 0.00 0.00 0.00 0.00 0.00 0.00 0.00 0.00 0.00 0.00 0.00 0.00 0.00 0.00 0.00 0.00 0.00 0.00 0.00 0.00 0.00 0.00 0.00 0.01 0.00 0.00 0.00 0.00 0.00 0.01 0.01 0.01
0.00 0.00 0.00 0.00 0.00 0.00 0.00 0.00 0.00 0.00 0.00 0.00 0.00 0.00 0.00 0.00 0.00 0.00 0.00 0.00 0.00 0.00 0.00 0.00 0.00 0.00 0.00 0.00 0.00 0.00 0.00 0.00 0.00 0.01 0.01 0.01 0.00 0.01 0.01 0.02 0.02 0.02 0.02
0.00 0.00 0.00 0.00 0.00 0.00 0.00 0.00 0.00 0.00 0.00 0.00 0.00 0.00 0.00 0.00 0.00 0.00 0.00 0.00 0.00 0.00 0.00 0.00 0.00 0.00 0.00 0.00 0.00 0.00 0.00 0.00 0.00 0.00 0.01 0.01 0.01 0.01 0.02 0.03 0.02 0.01 0.01
0.00 0.00 0.00 0.00 0.00 0.00 0.00 0.00 0.00 0.00 0.00 0.00 0.00 0.00 0.00 0.00 0.00 0.00 0.00 0.00 0.00 0.00 0.00 0.00 0.00 0.00 0.00 0.00 0.00 0.00 0.00 0.00 0.00 0.00 0.00 0.01 0.01 0.01 0.00 0.00 0.01 0.01 0.01
0.00 0.00 0.00 0.00 0.00 0.00 0.00 0.00 0.00 0.00 0.00 0.00 0.00 0.00 0.00 0.00 0.00 0.00 0.00 0.00 0.00 0.00 0.00 0.00 0.00 0.00 0.00 0.00 0.01 0.01 0.01 0.00 0.00 0.00 0.00 0.00 0.00 0.00 0.00 0.00 0.01 0.02 0.02
0.00 0.00 0.00 0.00 0.00 0.00 0.00 0.00 0.00 0.00 0.00 0.00 0.00 0.00 0.00 0.00 0.00 0.00 0.00 0.00 0.00 0.00 0.00 0.00 0.00 0.00 0.00 0.00 0.01 0.02 0.01 0.01 0.01 0.00 0.00 0.00 0.00 0.00 0.00 0.00 0.00 0.01 0.02
0.01 0.01 0.00 0.00 0.00 0.00 0.00 0.00 0.00 0.00 0.00 0.00 0.00 0.00 0.00 0.00 0.00 0.00 0.00 0.00 0.00 0.00 0.00 0.00 0.00 0.00 0.01 0.01 0.02 0.02 0.01 0.02 0.01 0.00 0.00 0.00 0.00 0.00 0.00 0.00 0.00 0.00 0.00
0.00 0.00 0.00 0.00 0.00 0.00 0.00 0.00 0.00 0.00 0.00 0.00 0.00 0.00 0.00 0.00 0.00 0.00 0.00 0.00 0.00 0.00 0.00 0.00 0.01 0.01 0.02 0.02 0.02 0.02 0.02 0.01 0.00 0.00 0.00 0.00 0.00 0.00 0.00 0.00 0.00 0.00 0.00
0.00 0.00 0.00 0.00 0.00 0.00 0.00 0.00 0.00 0.00 0.00 0.00 0.00 0.00 0.00 0.00 0.00 0.00 0.00 0.00 0.00 0.00 0.01 0.01 0.01 0.01 0.03 0.03 0.01 0.01 0.01 0.01 0.00 0.00 0.00 0.00 0.00 0.00 0.00 0.00 0.00 0.00 0.00
0.00 0.00 0.00 0.00 0.00 0.00 0.00 0.00 0.00 0.00 0.00 0.00 0.00 0.00 0.00 0.00 0.00 0.00 0.00 0.00 0.00 0.01 0.01 0.01 0.01 0.01 0.01 0.02 0.01 0.01 0.01 0.01 0.00 0.00 0.00 0.00 0.00 0.00 0.00 0.00 0.00 0.00 0.00
0.00 0.00 0.00 0.00 0.00 0.00 0.00 0.00 0.00 0.00 0.00 0.00 0.00 0.00 0.00 0.00 0.00 0.00 0.01 0.01 0.01 0.02 0.04 0.02 0.01 0.01 0.01 0.01 0.01 0.01 0.01 0.01 0.00 0.00 0.00 0.00 0.00 0.00 0.00 0.00 0.00 0.00 0.00
0.00 0.00 0.00 0.00 0.00 0.00 0.00 0.00 0.00 0.00 0.00 0.00 0.00 0.00 0.01 0.01 0.01 0.01 0.01 0.01 0.02 0.03 0.05 0.03 0.02 0.01 0.01 0.01 0.01 0.01 0.01 0.00 0.00 0.00 0.00 0.00 0.00 0.00 0.00 0.00 0.00 0.00 0.00
0.00 0.00 0.00 0.00 0.00 0.00 0.00 0.00 0.00 0.00 0.00 0.00 0.00 0.00 0.00 0.01 0.01 0.01 0.01 0.02 0.02 0.02 0.03 0.02 0.01 0.02 0.02 0.02 0.01 0.01 0.01 0.01 0.00 0.00 0.00 0.00 0.00 0.00 0.00 0.00 0.00 0.00 0.00
0.00 0.00 0.00 0.00 0.00 0.00 0.00 0.00 0.00 0.00 0.00 0.00 0.00 0.00 0.00 0.01 0.01 0.01 0.01 0.02 0.01 0.01 0.01 0.01 0.01 0.01 0.02 0.02 0.01 0.01 0.01 0.01 0.00 0.00 0.00 0.00 0.00 0.00 0.00 0.00 0.00 0.00 0.00
0.00 0.00 0.00 0.00 0.00 0.00 0.00 0.00 0.00 0.00 0.00 0.00 0.00 0.00 0.00 0.00 0.00 0.00 0.01 0.01 0.01 0.01 0.01 0.01 0.01 0.01 0.01 0.01 0.01 0.01 0.01 0.01 0.00 0.00 0.00 0.00 0.00 0.00 0.00 0.00 0.00 0.00 0.00
0.00 0.00 0.00 0.00 0.00 0.00 0.00 0.00 0.00 0.00 0.00 0.00 0.00 0.00 0.00 0.00 0.00 0.00 0.00 0.00 0.00 0.00 0.00 0.01 0.01 0.01 0.01 0.01 0.01 0.01 0.01 0.01 0.00 0.00 0.00 0.00 0.00 0.00 0.00 0.00 0.00 0.00 0.00
0.00 0.00 0.00 0.00 0.00 0.00 0.00 0.00 0.00 0.00 0.00 0.00 0.00 0.00 0.01 0.00 0.00 0.00 0.00 0.00 0.00 0.00 0.00 0.01 0.01 0.01 0.01 0.01 0.01 0.01 0.01 0.00 0.00 0.00 0.00 0.00 0.00 0.00 0.00 0.00 0.00 0.00 0.00
0.00 0.00 0.00 0.00 0.00 0.00 0.00 0.00 0.00 0.00 0.00 0.00 0.00 0.00 0.00 0.00 0.00 0.00 0.00 0.00 0.00 0.00 0.00 0.00 0.01 0.01 0.01 0.01 0.01 0.01 0.01 0.00 0.00 0.00 0.00 0.00 0.00 0.00 0.00 0.00 0.00 0.00 0.00
0.00 0.00 0.00 0.00 0.00 0.00 0.00 0.01 0.01 0.01 0.00 0.00 0.00 0.00 0.00 0.00 0.00 0.00 0.00 0.00 0.00 0.00 0.00 0.00 0.00 0.00 0.01 0.01 0.01 0.01 0.00 0.00 0.00 0.00 0.00 0.00 0.00 0.00 0.00 0.00 0.00 0.00 0.00
0.00 0.00 0.00 0.00 0.00 0.01 0.01 0.00 0.00 0.00 0.00 0.00 0.00 0.00 0.00 0.00 0.00 0.00 0.00 0.00 0.00 0.00 0.00 0.00 0.00 0.00 0.00 0.00 0.00 0.00 0.00 0.00 0.00 0.00 0.00 0.00 0.00 0.00 0.00 0.00 0.00 0.00 0.00
0.00 0.00 0.00 0.00 0.00 0.00 0.00 0.00 0.00 0.00 0.00 0.00 0.00 0.00 0.00 0.00 0.00 0.00 0.00 0.00 0.00 0.00 0.00 0.00 0.00 0.00 0.00 0.00 0.00 0.00 0.00 0.00 0.00 0.00 0.00 0.00 0.00 0.00 0.00 0.00 0.00 0.00 0.00
MSLP
1022.87 1023.69 1024.55 1025.40 1026.21 1026.96 1027.65 1028.30 1028.91 1029.53 1030.15 1030.79 1031.42 1032.03 1032.59 1033.09 1033.50 1033.84 1034.12 1034.37 1034.62 1034.88 1035.17 1035.49 1035.80 1036.07 1036.27 1036.36 1036.32 1036.17 1035.91 1035.57 1035.19 1034.79 1034.40 1034.02 1033.63 1033.22 1032.75 1032.21 1031.59 1030.87 1030.07
1022.65 1023.49 1024.34 1025.18 1025.98 1026.72 1027.40 1028.05 1028.67 1029.30 1029.94 1030.58 1031.22 1031.84 1032.40 1032.90 1033.32 1033.66 1033.95 1034.20 1034.45 1034.71 1034.99 1035.28 1035.57 1035.82 1036.01 1036.10 1036.08 1035.95 1035.73 1035.43 1035.09 1034.72 1034.34 1033.95 1033.53 1033.07 1032.55 1031.95 1031.26 1030.49 1029.66
1022.39 1023.26 1024.12 1024.96 1025.75 1026.47 1027.15 1027.79 1028.40 1029.02 1029.65 1030.28 1030.91 1031.51 1032.06 1032.54 1032.95 1033.29 1033.58 1033.84 1034.09 1034.35 1034.62 1034.90 1035.18 1035.42 1035.60 1035.70 1035.71 1035.62 1035.44 1035.19 1034.89 1034.56 1034.19 1033.79 1033.35 1032.85 1032.27 1031.62 1030.87 1030.05 1029.18
1022.02 1022.94 1023.83 1024.67 1025.45 1026.17 1026.83 1027.45 1028.06 1028.66 1029.27 1029.88 1030.48 1031.05 1031.57 1032.03 1032.43 1032.76 1033.05 1033.31 1033.57 1033.83 1034.10 1034.38 1034.65 1034.89 1035.08 1035.19 1035.22 1035.17 1035.04 1034.84 1034.59 1034.28 1033.94 1033.54 1033.08 1032.55 1031.93 1031.23 1030.45 1029.59 1028.69
1021.51 1022.47 1023.40 1024.25 1025.03 1025.75 1026.40 1027.01 1027.61 1028.20 1028.79 1029.38 1029.95 1030.49 1030.99 1031.43 1031.81 1032.13 1032.42 1032.69 1032.95 1033.22 1033.49 1033.77 1034.03 1034.27 1034.47 1034.60 1034.65 1034.63 1034.54 1034.38 1034.17 1033.90 1033.57 1033.19 1032.73 1032.19 1031.56 1030.84 1030.04 1029.18 1028.26
1020.83 1021.85 1022.80 1023.67 1024.46 1025.18 1025.83 1026.45 1027.05 1027.64 1028.23 1028.80 1029.36 1029.89 1030.36 1030.79 1031.16 1031.48 1031.77 1032.05 1032.31 1032.58 1032.85 1033.13 1033.39 1033.62 1033.81 1033.94 1034.01 1034.01 1033.95 1033.83 1033.65 1033.42 1033.13 1032.77 1032.33 1031.81 1031.20 1030.50 1029.72 1028.87 1027.97
1020.01 1021.08 1022.06 1022.94 1023.74 1024.47 1025.14 1025.78 1026.40 1027.01 1027.61 1028.20 1028.76 1029.29 1029.76 1030.18 1030.55 1030.87 1031.16 1031.43 1031.70 1031.97 1032.23 1032.49 1032.74 1032.95 1033.12 1033.25 1033.31 1033.32 1033.28 1033.19 1033.05 1032.87 1032.62 1032.31 1031.93 1031.46 1030.90 1030.24 1029.51 1028.70 1027.83
1019.13 1020.22 1021.21 1022.11 1022.92 1023.67 1024.37 1025.05 1025.71 1026.36 1027.00 1027.61 1028.19 1028.73 1029.21 1029.63 1029.99 1030.32 1030.61 1030.88 1031.13 1031.39 1031.63 1031.87 1032.08 1032.27 1032.41 1032.51 1032.57 1032.58 1032.56 1032.50 1032.41 1032.27 1032.09 1031.85 1031.54 1031.15 1030.67 1030.09 1029.42 1028.68 1027.87
1018.26 1019.35 1020.34 1021.24 1022.07 1022.85 1023.59 1024.32 1025.03 1025.73 1026.41 1027.06 1027.67 1028.21 1028.70 1029.12 1029.48 1029.80 1030.08 1030.34 1030.58 1030.81 1031.03 1031.23 1031.40 1031.55 1031.66 1031.73 1031.78 1031.79 1031.79 1031.77 1031.72 1031.66 1031.56 1031.41 1031.19 1030.89 1030.50 1030.01 1029.43 1028.76 1028.01
1017.51 1018.57 1019.54 1020.44 1021.28 1022.09 1022.87 1023.64 1024.41 1025.15 1025.87 1026.55 1027.17 1027.72 1028.20 1028.62 1028.97 1029.27 1029.54 1029.77 1029.99 1030.19 1030.37 1030.54 1030.67 1030.77 1030.85 1030.91 1030.94 1030.96 1030.99 1031.01 1031.03 1031.04 1031.03 1030.98 1030.86 1030.66 1030.37 1029.97 1029.47 1028.86 1028.16
1016.92 1017.94 1018.88 1019.76 1020.61 1021.44 1022.25 1023.06 1023.86 1024.64 1025.37 1026.06 1026.67 1027.21 1027.67 1028.06 1028.39 1028.67 1028.91 1029.13 1029.32 1029.49 1029.64 1029.77 1029.87 1029.94 1029.99 1030.03 1030.07 1030.11 1030.17 1030.25 1030.34 1030.43 1030.51 1030.55 1030.53 1030.43 1030.22 1029.90 1029.46 1028.90 1028.23
1016.54 1017.48 1018.38 1019.25 1020.09 1020.93 1021.77 1022.59 1023.40 1024.18 1024.91 1025.57 1026.15 1026.65 1027.07 1027.43 1027.72 1027.97 1028.19 1028.38 1028.55 1028.71 1028.84 1028.94 1029.02 1029.07 1029.11 1029.15 1029.19 1029.26 1029.36 1029.50 1029.66 1029.84 1030.01 1030.13 1030.19 1030.16 1030.02 1029.75 1029.34 1028.81 1028.15
1016.34 1017.21 1018.07 1018.90 1019.74 1020.58 1021.41 1022.23 1023.03 1023.78 1024.46 1025.07 1025.60 1026.04 1026.41 1026.71 1026.97 1027.19 1027.39 1027.57 1027.74 1027.89 1028.01 1028.11 1028.17 1028.22 1028.26 1028.30 1028.36 1028.46 1028.61 1028.80 1029.02 1029.27 1029.51 1029.71 1029.83 1029.85 1029.74 1029.50 1029.10 1028.57 1027.91
1016.29 1017.10 1017.90 1018.71 1019.53 1020.36 1021.17 1021.97 1022.73 1023.42 1024.04 1024.58 1025.03 1025.41 1025.72 1025.98 1026.20 1026.41 1026.60 1026.79 1026.96 1027.12 1027.25 1027.35 1027.42 1027.47 1027.51 1027.56 1027.63 1027.76 1027.94 1028.17 1028.45 1028.75 1029.04 1029.29 1029.45 1029.50 1029.41 1029.16 1028.76 1028.21 1027.53
1016.36 1017.11 1017.87 1018.66 1019.46 1020.26 1021.05 1021.80 1022.51 1023.14 1023.69 1024.15 1024.53 1024.83 1025.09 1025.32 1025.53 1025.74 1025.94 1026.15 1026.35 1026.52 1026.67 1026.78 1026.86 1026.90 1026.94 1026.99 1027.07 1027.20 1027.39 1027.64 1027.95 1028.29 1028.61 1028.89 1029.08 1029.14 1029.05 1028.80 1028.38 1027.80 1027.09
1016.53 1017.23 1017.96 1018.71 1019.50 1020.27 1021.03 1021.74 1022.39 1022.95 1023.43 1023.83 1024.15 1024.41 1024.64 1024.85 1025.07 1025.30 1025.53 1025.77 1026.00 1026.20 1026.37 1026.48 1026.55 1026.59 1026.60 1026.63 1026.69 1026.80 1026.99 1027.24 1027.56 1027.90 1028.25 1028.54 1028.74 1028.81 1028.73 1028.47 1028.03 1027.43 1026.69
1016.79 1017.44 1018.15 1018.88 1019.64 1020.39 1021.12 1021.79 1022.38 1022.90 1023.32 1023.67 1023.96 1024.20 1024.43 1024.66 1024.90 1025.16 1025.43 1025.71 1025.97 1026.19 1026.36 1026.47 1026.51 1026.52 1026.49 1026.47 1026.49 1026.57 1026.72 1026.95 1027.26 1027.60 1027.94 1028.25 1028.46 1028.54 1028.46 1028.21 1027.77 1027.17 1026.41
1017.16 1017.78 1018.45 1019.17 1019.90 1020.63 1021.31 1021.95 1022.51 1022.99 1023.39 1023.71 1023.99 1024.24 1024.49 1024.75 1025.03 1025.34 1025.65 1025.96 1026.23 1026.46 1026.61 1026.69 1026.69 1026.64 1026.55 1026.47 1026.42 1026.44 1026.55 1026.75 1027.02 1027.35 1027.69 1028.00 1028.22 1028.32 1028.26 1028.03 1027.61 1027.02 1026.27
1017.66 1018.25 1018.89 1019.57 1020.27 1020.97 1021.62 1022.23 1022.76 1023.22 1023.61 1023.94 1024.24 1024.51 1024.79 1025.09 1025.42 1025.75 1026.09 1026.41 1026.69 1026.89 1027.01 1027.03 1026.97 1026.85 1026.69 1026.53 1026.41 1026.37 1026.42 1026.57 1026.81 1027.12 1027.45 1027.77 1028.00 1028.13 1028.10 1027.89 1027.51 1026.95 1026.23
1018.31 1018.85 1019.45 1020.09 1020.75 1021.40 1022.03 1022.60 1023.11 1023.56 1023.96 1024.30 1024.62 1024.93 1025.25 1025.58 1025.93 1026.28 1026.63 1026.93 1027.17 1027.33 1027.39 1027.35 1027.22 1027.01 1026.78 1026.54 1026.36 1026.25 1026.25 1026.36 1026.57 1026.86 1027.19 1027.50 1027.76 1027.91 1027.91 1027.74 1027.40 1026.89 1026.21
1019.09 1019.58 1020.12 1020.70 1021.31 1021.91 1022.48 1023.03 1023.52 1023.96 1024.35 1024.71 1025.05 1025.38 1025.72 1026.06 1026.42 1026.76 1027.08 1027.34 1027.53 1027.63 1027.62 1027.50 1027.29 1027.02 1026.72 1026.43 1026.19 1026.04 1026.01 1026.08 1026.27 1026.54 1026.85 1027.17 1027.43 1027.60 1027.63 1027.50 1027.20 1026.74 1026.12
1019.96 1020.38 1020.85 1021.36 1021.89 1022.43 1022.95 1023.44 1023.91 1024.33 1024.71 1025.07 1025.42 1025.75 1026.09 1026.42 1026.75 1027.05 1027.31 1027.51 1027.63 1027.65 1027.57 1027.38 1027.12 1026.79 1026.45 1026.13 1025.87 1025.70 1025.64 1025.70 1025.87 1026.12 1026.42 1026.72 1026.98 1027.15 1027.20 1027.11 1026.85 1026.43 1025.87
1020.83 1021.18 1021.56 1021.99 1022.44 1022.91 1023.36 1023.80 1024.22 1024.61 1024.98 1025.32 1025.64 1025.96 1026.26 1026.55 1026.82 1027.06 1027.25 1027.37 1027.40 1027.35 1027.20 1026.96 1026.66 1026.32 1025.97 1025.65 1025.39 1025.23 1025.17 1025.22 1025.37 1025.60 1025.88 1026.16 1026.39 1026.55 1026.60 1026.52 1026.29 1025.92 1025.43
1021.62 1021.89 1022.20 1022.54 1022.91 1023.29 1023.68 1024.06 1024.42 1024.77 1025.10 1025.40 1025.69 1025.95 1026.20 1026.43 1026.63 1026.78 1026.88 1026.91 1026.87 1026.75 1026.56 1026.29 1025.98 1025.64 1025.31 1025.02 1024.79 1024.64 1024.60 1024.65 1024.79 1024.99 1025.23 1025.47 1025.67 1025.80 1025.83 1025.75 1025.55 1025.22 1024.79
1022.26 1022.45 1022.69 1022.95 1023.24 1023.55 1023.87 1024.19 1024.50 1024.79 1025.07 1025.33 1025.56 1025.77 1025.94 1026.09 1026.20 1026.27 1026.28 1026.24 1026.13 1025.96 1025.73 1025.46 1025.16 1024.85 1024.55 1024.30 1024.11 1024.00 1023.97 1024.02 1024.13 1024.30 1024.50 1024.68 1024.83 1024.92 1024.93 1024.84 1024.65 1024.38 1024.01
1022.68 1022.83 1023.00 1023.20 1023.43 1023.67 1023.93 1024.19 1024.45 1024.70 1024.92 1025.12 1025.29 1025.43 1025.54 1025.61 1025.63 1025.62 1025.55 1025.44 1025.28 1025.07 1024.83 1024.57 1024.29 1024.01 1023.76 1023.55 1023.40 1023.31 1023.28 1023.32 1023.41 1023.53 1023.67 1023.80 1023.89 1023.94 1023.92 1023.83 1023.67 1023.43 1023.15
Thickness
5556 5550 5543 5535 5529 5522 5516 5509 5502 5494 5486 5478 5469 5461 5452 5443 5434 5425 5415 5406 5396 5387 5377 5368 5358 5347 5336 5325 5314 5303 5292 5282 5279 5286 5281 5271 5262 5253 5247 5238 5232 5229 5227
5548 5542 5535 5527 5519 5512 5505 5498 5490 5482 5474 5465 5456 5447 5438 5429 5419 5410 5400 5390 5380 5370 5360 5350 5340 5330 5318 5307 5296 5285 5274 5263 5255 5258 5261 5252 5244 5233 5229 5223 5219 5214 5210
5540 5533 5525 5518 5511 5503 5495 5487 5478 5470 5461 5452 5443 5434 5425 5415 5405 5395 5385 5375 5365 5355 5345 5334 5324 5313 5302 5291 5280 5269 5258 5248 5238 5233 5235 5232 5225 5216 5212 5209 5204 5200 5196
5531 5524 5518 5511 5503 5494 5485 5476 5467 5457 5448 5439 5430 5420 5411 5401 5391 5381 5370 5360 5350 5340 5329 5319 5308 5297 5287 5277 5266 5255 5245 5235 5224 5216 5214 5212 5207 5201 5193 5191 5192 5189 5185
5524 5517 5510 5501 5491 5482 5472 5463 5454 5444 5436 5426 5416 5406 5396 5386 5377 5367 5356 5346 5335 5325 5314 5304 5293 5283 5273 5263 5253 5243 5233 5222 5211 5203 5199 5195 5191 5185 5178 5173 5171 5173 5174
5517 5510 5500 5489 5479 5470 5461 5450 5440 5431 5421 5411 5401 5392 5382 5373 5363 5354 5343 5332 5321 5311 5300 5290 5279 5269 5260 5250 5242 5232 5222 5211 5198 5190 5186 5180 5175 5167 5162 5157 5152 5152 5158
5508 5498 5488 5479 5468 5459 5448 5437 5428 5419 5408 5398 5388 5378 5369 5360 5350 5340 5330 5319 5308 5298 5288 5277 5267 5258 5247 5238 5229 5221 5211 5200 5191 5181 5174 5166 5159 5152 5147 5145 5140 5135 5135
5495 5486 5477 5467 5457 5446 5435 5426 5417 5407 5396 5386 5376 5366 5356 5346 5336 5326 5316 5306 5296 5286 5276 5265 5256 5246 5235 5226 5219 5211 5202 5192 5182 5173 5164 5156 5147 5139 5133 5129 5124 5122 5124
5485 5477 5468 5457 5445 5434 5425 5416 5406 5394 5384 5374 5364 5353 5343 5333 5322 5312 5301 5292 5283 5275 5265 5254 5244 5235 5225 5216 5209 5202 5194 5185 5174 5165 5156 5147 5138 5130 5122 5117 5112 5106 5112
5479 5469 5457 5446 5435 5426 5417 5405 5394 5383 5374 5362 5351 5341 5331 5321 5308 5297 5287 5278 5270 5263 5254 5244 5235 5225 5216 5205 5197 5190 5182 5175 5166 5157 5147 5137 5128 5120 5112 5106 5101 5096 5096
5468 5455 5444 5435 5425 5416 5404 5393 5382 5370 5358 5348 5338 5328 5317 5307 5295 5284 5274 5265 5257 5248 5241 5233 5224 5214 5206 5198 5189 5181 5173 5165 5155 5145 5136 5127 5119 5112 5105 5099 5093 5089 5087
5453 5443 5433 5423 5412 5401 5390 5379 5367 5355 5344 5333 5322 5312 5302 5292 5282 5272 5262 5254 5245 5236 5231 5223 5214 5205 5197 5189 5180 5172 5163 5154 5142 5132 5123 5116 5109 5103 5098 5093 5088 5084 5081
5438 5428 5418 5407 5397 5387 5377 5364 5351 5340 5330 5320 5308 5299 5290 5279 5268 5260 5251 5242 5233 5226 5220 5213 5204 5196 5187 5179 5171 5161 5150 5140 5129 5118 5111 5105 5099 5094 5089 5086 5083 5081 5080
5423 5412 5401 5391 5380 5369 5360 5350 5338 5326 5315 5305 5294 5286 5276 5265 5255 5246 5238 5229 5221 5213 5207 5200 5193 5185 5176 5168 5158 5148 5137 5127 5117 5108 5101 5095 5089 5084 5079 5076 5075 5075 5076
5402 5392 5382 5372 5362 5350 5340 5331 5322 5313 5304 5293 5283 5272 5261 5252 5244 5236 5226 5217 5208 5199 5192 5185 5177 5169 5161 5152 5142 5132 5122 5112 5103 5096 5088 5082 5077 5073 5070 5067 5065 5063 5063
5381 5370 5361 5351 5340 5330 5319 5308 5302 5294 5285 5277 5268 5257 5248 5241 5232 5225 5217 5209 5200 5191 5182 5174 5166 5157 5149 5140 5130 5120 5109 5100 5092 5083 5076 5069 5065 5062 5060 5057 5055 5055 5056
5361 5350 5340 5330 5320 5310 5300 5292 5280 5273 5267 5259 5251 5243 5234 5226 5218 5211 5203 5196 5187 5178 5168 5160 5152 5144 5135 5127 5117 5107 5098 5088 5079 5071 5064 5058 5054 5051 5049 5048 5047 5048 5049
5338 5329 5320 5311 5301 5292 5283 5274 5265 5255 5245 5236 5230 5224 5217 5210 5202 5195 5187 5179 5168 5159 5150 5142 5134 5125 5117 5109 5101 5092 5083 5073 5064 5058 5052 5047 5043 5040 5039 5038 5039 5039 5042
5314 5306 5297 5288 5280 5271 5262 5253 5243 5235 5226 5216 5208 5202 5197 5191 5184 5176 5169 5158 5150 5140 5132 5124 5116 5108 5100 5092 5083 5074 5065 5057 5050 5043 5039 5035 5032 5030 5030 5031 5032 5033 5035
5290 5284 5275 5267 5258 5249 5241 5232 5223 5215 5206 5198 5190 5183 5175 5168 5161 5154 5147 5139 5131 5124 5116 5108 5100 5091 5083 5075 5067 5058 5049 5042 5036 5031 5028 5025 5024 5023 5024 5024 5026 5027 5029
5266 5259 5252 5244 5237 5229 5221 5213 5205 5196 5188 5179 5172 5165 5161 5152 5145 5137 5129 5122 5115 5108 5100 5093 5085 5077 5069 5060 5052 5043 5035 5029 5025 5021 5019 5017 5016 5017 5018 5019 5020 5022 5024
5242 5235 5229 5222 5215 5207 5200 5192 5185 5177 5169 5161 5154 5147 5146 5136 5128 5121 5114 5107 5100 5093 5086 5079 5071 5063 5055 5047 5039 5031 5024 5019 5015 5012 5011 5011 5011 5012 5013 5014 5016 5018 5020
5218 5212 5205 5198 5192 5185 5177 5170 5163 5157 5150 5143 5136 5130 5124 5117 5111 5105 5098 5092 5086 5079 5073 5066 5059 5051 5043 5036 5028 5021 5014 5011 5008 5006 5006 5006 5007 5008 5009 5010 5012 5013 5016
5195 5189 5183 5176 5169 5163 5156 5149 5143 5137 5130 5124 5118 5112 5107 5101 5095 5089 5083 5077 5072 5066 5060 5054 5047 5040 5033 5026 5019 5013 5008 5005 5003 5002 5003 5004 5005 5006 5007 5008 5010 5012 5014
5172 5166 5160 5154 5148 5141 5135 5129 5123 5118 5112 5107 5101 5096 5091 5085 5080 5074 5069 5064 5058 5053 5048 5042 5036 5030 5024 5018 5012 5008 5004 5002 5001 5001 5001 5002 5004 5005 5006 5007 5009 5011 5013
5148 5142 5137 5131 5126 5120 5115 5110 5105 5100 5095 5090 5085 5080 5075 5070 5065 5060 5055 5050 5046 5041 5037 5032 5027 5021 5016 5012 5008 5004 5002 5001 5001 5001 5001 5002 5003 5004 5005 5007 5009 5011 5014